Starlink 11670

operational
NORAD ID: 64237 Int'l Des: 2025-119 Owner: SPXS Country: US Constellation: starlink
LEOCIRCULAR

Starlink 11670について

説明を読み込み中...

リアルタイム位置

3D地球を読み込み中...

次回通過

高度履歴

Altitude vs Time

uPlot chart will show altitude changes over time

軌道要素

1 64237U 25119E 25353.65201794 .00200541 00000-0 15266-2 0 9996
2 64237 42.9995 331.8438 0001134 47.2217 312.8746 15.70876544 32658
Epoch: Dec 19, 2025 • Age: 7 hours

現在のステータス

高度 366.7 km
速度 7.69 km/s
衛星直下点 -34.77°S, 127.73°E
打ち上げ日 Jun 3, 2025
運用期間 0.5 years
タイプ internet

技術仕様

分類 Payload
質量 960.00 kg
乾燥質量 910.00 kg
総質量 960.00 kg
長さ 0.30 m
直径 4.10 m
スパン 29.00 m
形状 Box + pan
製造者 SPXS
バスタイプ Starlink V2MD
フェーズステータス In Orbit
所有者/国 SPXS/US

大規模コンステレーション

Loading constellations...